Flag for Micronesia Weather past 2 weeks in Kolonia, Ponape, Micronesia

Now
78 °F

Passing clouds.


Feels Like: 79 °F
Forecast: 75 / 86 °F
Wind: 2 mph from Southeast

Location: Pohnpei

Current Time: Jul 31, 2014 at 11:04:43 PM

Latest Report: Jul 31, 2014 at 9:55 PM


Visibility: 15 mi

Pressure: 29.85 "Hg

Humidity: 94%

Dew point: 76 °F

Location of KoloniaLocation

Historic Weather in Kolonia — Graph

°F

Kolonia temperature yesterday

Maximum temperature yesterday: 91 °F (at 11:52 AM)
Minimum temperature yesterday: 75 °F (at 10:55 PM)
Average temperature yesterday: 80 °F

Past Weeks' High & Low Weather Summary

 TemperatureHumidityPressure
High91 °F (Jul 29, 12:52 PM)99% (Jul 20, 4:54 AM)29.94 "Hg (Jul 20, 4:54 AM)
Low74 °F (Jul 29, 4:53 AM)57% (Jul 29, 12:52 PM)29.75 "Hg (Jul 23, 3:55 AM)
Average80 °F88%29.84 "Hg
* Reported Jul 16 9:50 PM — Jul 31 9:55 PM, Kolonia, Weather by CustomWeather, © 2014

Note: Actual official high and low records may vary slightly from our data, if they occured in-between our weather recording intervals... More about our weather records

Advertising

Kolonia weather history for previous 24 hours

 ConditionsComfort  
Time TempWeatherWind HumidityBarometerVisibility
9:55 PM
Jul 31
78 °FPassing clouds.2 mph94%29.85 "Hg15 mi
8:52 PM78 °FPassing clouds.2 mph92%29.85 "Hg15 mi
7:55 PM79 °FOvercast.1 mph92%29.83 "Hg15 mi
6:53 PM80 °FOvercast.2 mph89%29.81 "Hg15 mi
5:55 PM82 °FOvercast.2 mph85%29.80 "Hg15 mi
4:50 PM83 °FMore clouds than sun.5 mph81%29.79 "Hg15 mi
3:54 PM84 °FCloudy.3 mph84%29.80 "Hg15 mi
2:51 PM89 °FBroken clouds.3 mph72%29.80 "Hg15 mi
1:51 PM89 °FMore clouds than sun.3 mph74%29.81 "Hg15 mi
12:52 PM89 °FMore clouds than sun.5 mph74%29.83 "Hg15 mi
11:52 AM87 °FBroken clouds.3 mph73%29.85 "Hg15 mi
10:54 AM85 °FMore clouds than sun.6 mph74%29.86 "Hg15 mi
9:54 AM84 °FCloudy.3 mph80%29.88 "Hg15 mi
8:57 AM80 °FMostly cloudy.3 mph89%29.88 "Hg15 mi
7:50 AM76 °FMostly cloudy.3 mph98%29.85 "Hg15 mi
6:50 AM76 °FMostly cloudy.3 mph98%29.83 "Hg15 mi
5:50 AM75 °FMostly cloudy.3 mph99%29.83 "Hg15 mi
4:50 AM76 °FMostly cloudy.3 mph98%29.84 "Hg15 mi
3:50 AM75 °FSprinkles. Mostly cloudy.3 mph98%29.84 "Hg14 mi
2:50 AM75 °FSprinkles. Mostly cloudy.3 mph98%29.85 "Hg14 mi
1:55 AM75 °FSprinkles. Mostly cloudy.3 mph99%29.85 "Hg14 mi
12:50 AM75 °FSprinkles. Mostly cloudy.6 mph98%29.86 "Hg15 mi
11:55 PM
Jul 30
75 °FSprinkles. Mostly cloudy.2 mph97%29.89 "Hg10 mi
Weather by CustomWeather, © 2014

See weather overviewHow to use our weather pages